Home   Weather   Daly City   Past weeks

Flag for USA Past Weather in Daly City, California, USA — Yesterday and Last 2 Weeks

Now
55 °F

Mostly cloudy.


Feels Like: 52 °F
Forecast: 48 / 54 °F
Wind: 12 mph from South

Location: San Francisco International Airport

Current Time: Jan 21, 2017 at 4:07:07 pm

Latest Report: Jan 21, 2017 at 2:56 pm


Visibility: 10 mi

Pressure: 29.86 "Hg

Humidity: 64%

Dew Point: 43 °F

Location of Daly CityLocation

Past Weather in Daly City — Graph

°F

Daly City Temperature Yesterday

Maximum temperature yesterday: 56 °F (at 10:56 am)
Minimum temperature yesterday: 48 °F (at 4:38 am)
Average temperature yesterday: 51 °F

High & Low Weather Summary for the Past Weeks

 TemperatureHumidityPressure
High64 °F (Jan 8, 11:56 am)97% (Jan 7, 11:29 pm)30.25 "Hg (Jan 7, 11:29 pm)
Low40 °F (Jan 14, 5:56 am)44% (Jan 13, 3:56 pm)29.34 "Hg (Jan 20, 3:56 am)
Average52 °F79%29.94 "Hg
* Reported Jan 6 2:56 pm — Jan 21 2:56 pm, Daly City, Weather by CustomWeather, © 2017

Note: Actual official high and low records may vary slightly from our data, if they occured in-between our weather recording intervals... More about our weather records

Advertising

Daly City Weather History for the Previous 24 Hours

Scroll right to see more
 ConditionsComfort  
Time TempWeatherWind HumidityBarometerVisibility
2:56 pm
Sat, Jan 21
55 °FMostly cloudy.12 mph64%29.86 "Hg10 mi
1:56 pm55 °FMostly cloudy.13 mph69%29.86 "Hg10 mi
12:56 pm53 °FLight rain. Mostly cloudy.9 mph72%29.86 "Hg8 mi
11:56 am56 °FPartly sunny.9 mph65%29.85 "Hg10 mi
10:56 am55 °FPartly sunny.7 mph67%29.85 "Hg10 mi
9:56 am54 °FPartly sunny.12 mph69%29.82 "Hg10 mi
8:56 am53 °FScattered clouds.10 mph74%29.79 "Hg9 mi
7:56 am50 °FScattered clouds.10 mph77%29.75 "Hg10 mi
6:56 am49 °FPassing clouds.8 mph74%29.71 "Hg10 mi
5:56 am52 °FLight rain. Mostly cloudy.16 mph75%29.67 "Hg10 mi
4:56 am49 °FRain. Partly cloudy.12 mph80%29.65 "Hg8 mi
3:56 am50 °FPassing clouds.16 mph71%29.60 "Hg10 mi
2:56 am51 °FPartly cloudy.16 mph74%29.58 "Hg10 mi
1:56 am51 °FPassing clouds.9 mph74%29.56 "Hg10 mi
12:56 am51 °FPassing clouds.14 mph71%29.53 "Hg10 mi
11:56 pm
Fri, Jan 20
50 °FLight rain. Passing clouds.12 mph74%29.51 "Hg10 mi
10:56 pm51 °FOvercast.8 mph71%29.50 "Hg10 mi
9:56 pm51 °FPassing clouds.14 mph69%29.47 "Hg10 mi
8:56 pm50 °FPartly cloudy.10 mph71%29.45 "Hg10 mi
7:56 pm50 °FPassing clouds.13 mph71%29.43 "Hg10 mi
7:31 pm48 °FStrong thunderstorms. Passing clouds.22 mph80%29.42 "Hg3 mi
6:56 pm50 °FPartly cloudy.13 mph74%29.40 "Hg10 mi
5:56 pm50 °FPassing clouds.14 mph77%29.38 "Hg10 mi
5:12 pm49 °FRain. Mostly cloudy.12 mph80%29.37 "Hg3 mi
5:01 pm48 °FLight rain. Mostly cloudy.13 mph80%29.37 "Hg4 mi
Weather by CustomWeather, © 2017

See weather overviewHow to use our weather pages